Regional Weather Roundup
Issued by NWS

Home | Current Version | Previous Version | Graphics & Text | Print | Product List | Glossary On
Versions: 1 2 3 4 5 6 7 8 9 10 11 12 13 14 15 16 17 18 19 20 21 22 23 24 25 26 27 28 29 30 31 32 33 34 35 36 37 38 39 40 41 42 43 44 45 46 47 48 49 50
000
ASUS43 KBIS 281410
RWRND

NORTH DAKOTA REGIONAL WEATHER ROUNDUP
NATIONAL WEATHER SERVICE BISMARCK ND
800 AM CST FRI NOV 28 2014

NOTE: "FAIR" INDICATES FEW OR NO CLOUDS BELOW 12,000 FEET WITH NO
SIGNIFICANT WEATHER AND/OR OBSTRUCTIONS TO VISIBILITY.


NDZ001>003-009>011-017-281500-
NORTHWEST NORTH DAKOTA

CITY           SKY/WX    TMP DP  RH WIND       PRES   REMARKS
WILLISTON      CLOUDY    16  12  84 E10       29.69F WCI   4
MINOT          CLOUDY     8   3  80 E10       29.80F WCI  -6
MINOT AFB      CLOUDY     8   5  89 E13       29.79F WCI  -8
$$

NDZ018>021-031>035-040>046-281500-
SOUTHWEST NORTH DAKOTA

CITY           SKY/WX    TMP DP  RH WIND       PRES   REMARKS
BISMARCK       MOCLDY    11   7  84 E7        29.79R WCI   0
DICKINSON      CLOUDY    18  14  84 E9        29.62F WCI   7
GARRISON         N/A     11   7  84 E13       29.75F WCI  -4
HETTINGER ARPT MOCLDY    27  23  85 CALM      29.65F
$$

NDZ004>008-012>016-024-026-027-054-281500-
NORTHEAST NORTH DAKOTA

CITY           SKY/WX    TMP DP  RH WIND       PRES   REMARKS
GRAND FORKS    LGT SNOW  12   7  80 E12       29.96F WCI  -2
GRND FRKS AFB  CLOUDY    12   9  85 SE9       29.96F WCI   0
DEVILS LAKE    CLOUDY     9   0  66 E14       29.86S WCI  -8
$$

NDZ022-023-025-028>030-036>039-047>053-281500-
SOUTHEAST NORTH DAKOTA

CITY           SKY/WX    TMP DP  RH WIND       PRES   REMARKS
FARGO          CLOUDY    14   6  70 SE8       29.96F WCI   3
JAMESTOWN      CLOUDY     7   3  84 E12       29.84S WCI  -8
$$




USA.gov is the U.S. government's official web portal to all federal, state and local government web resources and services.